Flag for Canada Weather past 2 weeks in Moncton, New Brunswick, Canada

Now
0 °F

Sunny.


Feels Like: -17 °F
Forecast: -6 / 17 °F
Wind: 10 mph from Southwest

Location: Moncton

Current Time: Mar 6, 2015 at 9:34:25 AM

Latest Report: Mar 6, 2015 at 9:00 AM


Visibility: 15 mi

Pressure: 30.35 "Hg

Humidity: 60%

Dew point: -11 °F

Location of MonctonLocation

Historic Weather in Moncton — Graph

°F

Moncton temperature yesterday

Maximum temperature yesterday: 28 °F (at 2:00 AM)
Minimum temperature yesterday: 7 °F (at 11:00 PM)
Average temperature yesterday: 20 °F

Past Weeks' High & Low Weather Summary

 TemperatureHumidityPressure
High39 °F (Mar 4, 1:00 PM)100% (Feb 22, 9:00 AM)30.62 "Hg (Feb 22, 9:00 AM)
Low-13 °F (Feb 24, 5:00 AM)34% (Mar 5, 3:00 PM)29.26 "Hg (Feb 20, 4:46 AM)
Average15 °F67%29.96 "Hg
* Reported Feb 19 8:00 AM — Mar 6 8:00 AM, Moncton, Weather by CustomWeather, © 2015

Note: Actual official high and low records may vary slightly from our data, if they occured in-between our weather recording intervals... More about our weather records

Advertising

Moncton weather history for previous 24 hours

 ConditionsComfort  
Time TempWeatherWind HumidityBarometerVisibility
8:00 AM
Fri, Mar 6
-4 °FSunny.12 mph65%30.33 "Hg15 mi
7:00 AM-6 °FSunny.13 mph64%30.30 "Hg15 mi
6:00 AM-6 °FPassing clouds.13 mph64%30.29 "Hg15 mi
5:00 AM-4 °FClear.7 mph65%30.26 "Hg15 mi
4:00 AM-4 °FClear.7 mph59%30.24 "Hg15 mi
3:00 AM0 °FClear.8 mph54%30.21 "Hg15 mi
2:00 AM1 °FClear.6 mph46%30.19 "Hg15 mi
1:00 AM1 °FClear.10 mph46%30.16 "Hg15 mi
12:00 AM5 °FClear.14 mph42%30.15 "Hg15 mi
11:00 PM
Thu, Mar 5
7 °FClear.8 mph43%30.15 "Hg15 mi
10:00 PM9 °FPassing clouds.9 mph43%30.12 "Hg15 mi
9:00 PM10 °FPassing clouds.9 mph40%30.06 "Hg15 mi
8:00 PM10 °FPassing clouds.10 mph40%30.03 "Hg15 mi
7:00 PM12 °FPassing clouds.7 mph40%30.01 "Hg15 mi
6:00 PM14 °FPartly sunny.14 mph34%29.99 "Hg15 mi
5:00 PM14 °FPartly sunny.17 mph34%29.95 "Hg15 mi
4:00 PM16 °FBroken clouds.14 mph34%29.93 "Hg15 mi
3:00 PM16 °FPartly sunny.21 mph34%29.90 "Hg15 mi
2:00 PM18 °FPartly sunny.22 mph41%29.87 "Hg15 mi
1:00 PM19 °FPartly sunny.23 mph42%29.87 "Hg15 mi
12:00 PM19 °FPartly sunny.20 mph45%29.85 "Hg15 mi
11:00 AM21 °FPartly sunny.16 mph49%29.86 "Hg15 mi
10:00 AM21 °FPartly sunny.23 mph49%29.83 "Hg15 mi
9:00 AM23 °FPartly sunny.17 mph58%29.80 "Hg15 mi
Weather by CustomWeather, © 2015

See weather overviewHow to use our weather pages